Weather History for Kansas City International, MO

Change the Weather History Date:

Wednesday, February 19, 2014

  Actual Average Record
Temperature  
Mean Temperature 41 °F 35 °F  
Max Temperature 54 °F 45 °F 74 °F (1930)
Min Temperature 28 °F 25 °F -3 °F (1936)
Degree Days  
Heating Degree Days 24 30  
Month to date heating degree days 816 627  
Since 1 July heating degree days 4260 3791  
Cooling Degree Days 0 0  
Month to date cooling degree days 0 0  
Year to date cooling degree days 0 0  
Moisture  
Dew Point 31 °F    
Average Humidity 53    
Maximum Humidity 76    
Minimum Humidity 30    
Precipitation  
Precipitation 0.21 in 0.05 in 1.41 in (1891)
Month to date precipitation 0.99 0.95  
Year to date precipitation 1.38 2.02  
Snow  
Snow 0.00 in 0.20 in 3.00 in (1911)
Month to date snowfall 11.3 4.0  
Since 1 July snowfall 22.6 14.8  
Snow Depth 0.00 in    
Sea Level Pressure  
Sea Level Pressure 29.82 in    
Wind  
Wind Speed 10 mph (SE)    
Max Wind Speed 22 mph    
Max Gust Speed 27 mph    
Visibility 10 miles    
Events Rain , Thunderstorm    
T = Trace of Precipitation, MM = Missing Value Source: NWS Daily Summary

Daily Weather History Graph

Daily Weather History Graph

Search for Another Location

Airport:

Trip Planner

Search our weather history database for the weather conditions in past years. The results will help you decide how hot, cold, wet, or windy it might be!

Date:

Astronomy

Feb. 19, 2014 Rise Set
Actual Time 7:05 AM CST 6:00 PM CST
Civil Twilight 6:38 AM CST 6:27 PM CST
Nautical Twilight 6:07 AM CST 6:59 PM CST
Astronomical Twilight 5:36 AM CST 7:30 PM CST
Moon 10:52 PM CST (2/19) 9:13 AM CST (2/19)
Length of Visible Light 11h 49m
Length of Day
10h 54m
Waning Gibbous, 79% of the Moon is Illuminated
Feb 19
Waning Gibbous
Feb 22
Last Quarter
Mar 1
New
Mar 8
First Quarter
Mar 16
Full

Hourly Weather History & Observations

Time (CST) Temp. Windchill Dew Point Humidity Pressure Visibility Wind Dir Wind Speed Gust Speed Precip Events Conditions
12:53 AM 42.1 °F 37.7 °F 28.0 °F 58% 29.96 in 10.0 mi WNW 6.9 mph - N/A   Clear
1:53 AM 37.9 °F 32.7 °F 27.0 °F 65% 29.96 in 10.0 mi WNW 6.9 mph - N/A   Clear
2:53 AM 37.9 °F 32.7 °F 26.1 °F 62% 29.96 in 10.0 mi NW 6.9 mph - N/A   Clear
3:53 AM 37.9 °F 33.5 °F 26.1 °F 62% 29.96 in 10.0 mi WNW 5.8 mph - N/A   Clear
4:53 AM 37.9 °F 35.5 °F 26.1 °F 62% 29.96 in 10.0 mi WNW 3.5 mph - N/A   Clear
5:53 AM 34.0 °F 27.2 °F 25.0 °F 70% 29.98 in 10.0 mi WSW 8.1 mph - N/A   Clear
6:53 AM 30.0 °F 24.1 °F 23.0 °F 75% 30.00 in 10.0 mi SW 5.8 mph - N/A   Scattered Clouds
7:53 AM 32.0 °F 27.5 °F 25.0 °F 75% 29.98 in 10.0 mi SSW 4.6 mph - N/A   Mostly Cloudy
8:53 AM 37.0 °F 32.4 °F 28.9 °F 73% 30.00 in 10.0 mi SSW 5.8 mph - N/A   Mostly Cloudy
9:53 AM 43.0 °F 38.2 °F 28.0 °F 56% 30.01 in 10.0 mi South 8.1 mph - N/A   Mostly Cloudy
10:53 AM 48.0 °F - 30.9 °F 52% 29.99 in 10.0 mi SSE 9.2 mph - N/A   Mostly Cloudy
11:53 AM 48.9 °F - 28.9 °F 46% 29.96 in 10.0 mi SE 8.1 mph - N/A   Overcast
12:53 PM 51.1 °F - 26.1 °F 38% 29.91 in 10.0 mi SE 11.5 mph - N/A   Overcast
1:53 PM 53.1 °F - 27.0 °F 37% 29.87 in 10.0 mi SSE 9.2 mph - N/A   Overcast
2:53 PM 52.0 °F - 21.9 °F 31% 29.83 in 10.0 mi SE 12.7 mph - N/A   Overcast
3:53 PM 50.0 °F - 28.0 °F 43% 29.80 in 10.0 mi East 16.1 mph - N/A   Overcast
4:53 PM 46.9 °F - 35.1 °F 63% 29.81 in 10.0 mi NNE 8.1 mph - 0.00 in   Overcast
5:09 PM 46.0 °F 43.1 °F 34.0 °F 63% 29.82 in 10.0 mi NE 5.8 mph - N/A Thunderstorm Thunderstorm
5:39 PM 45.0 °F 37.6 °F 35.1 °F 68% 29.76 in 7.0 mi East 17.3 mph - 0.02 in Rain Rain
5:53 PM 45.0 °F 36.9 °F 36.0 °F 71% 29.75 in 10.0 mi East 20.7 mph - 0.03 in Rain Light Rain
6:53 PM 44.1 °F 36.2 °F 37.0 °F 76% 29.73 in 10.0 mi East 18.4 mph - 0.03 in   Overcast
7:53 PM 44.1 °F 35.9 °F 37.0 °F 76% 29.70 in 10.0 mi East 19.6 mph 27.6 mph N/A   Overcast
8:53 PM 44.1 °F 37.4 °F 37.0 °F 76% 29.67 in 10.0 mi East 13.8 mph - N/A   Overcast
9:53 PM 44.1 °F 36.8 °F 36.0 °F 73% 29.62 in 10.0 mi ESE 16.1 mph 24.2 mph 0.01 in   Overcast
10:22 PM 44.1 °F 37.4 °F 36.0 °F 73% 29.60 in 10.0 mi ESE 13.8 mph - 0.00 in Thunderstorm Overcast
10:32 PM 43.0 °F 36.0 °F 36.0 °F 76% 29.59 in 5.0 mi ESE 13.8 mph 20.7 mph 0.02 in Rain , Thunderstorm Light Thunderstorms and Rain
10:53 PM 43.0 °F 37.7 °F 37.0 °F 80% 29.62 in 6.0 mi ESE 9.2 mph - 0.11 in Rain Light Rain
11:05 PM 42.1 °F 36.6 °F 37.0 °F 82% 29.59 in 10.0 mi ESE 9.2 mph - 0.00 in   Overcast
11:16 PM 42.1 °F 36.6 °F 37.9 °F 85% 29.58 in 7.0 mi ESE 9.2 mph - 0.01 in Rain Light Rain
11:53 PM 42.1 °F 35.7 °F 37.9 °F 85% 29.56 in 10.0 mi East 11.5 mph - 0.03 in   Overcast